EDT,Max TemperatureF,Mean TemperatureF,Min TemperatureF,Max Dew PointF,MeanDew PointF,Min DewpointF,Max Humidity, Mean Humidity, Min Humidity, Max Sea Level PressureIn, Mean Sea Level PressureIn, Min Sea Level PressureIn, Max VisibilityMiles, Mean VisibilityMiles, Min VisibilityMiles, Max Wind SpeedMPH, Mean Wind SpeedMPH, Max Gust SpeedMPH,PrecipitationIn, CloudCover, Events, WindDirDegrees
2011-9-1,82,73,64,66,63,60,93,73,47,30.15,30.11,30.05,10,10,10,14,8,20,0.00,0,,21
2011-9-2,82,75,68,70,66,63,96,75,54,30.08,30.05,30.01,10,10,8,10,3,,0.00,2,,76
2011-9-3,84,74,64,66,62,55,87,66,44,30.04,30.01,29.97,10,10,8,12,4,,0.00,0,,62
2011-9-4,84,75,66,72,68,64,93,75,62,30.00,29.96,29.92,10,10,10,12,4,18,0.00,0,,180
2011-9-5,84,80,77,77,74,67,90,82,66,29.92,29.88,29.84,10,10,6,16,10,20,0.06,5,Rain,177
2011-9-6,87,84,81,79,78,76,91,84,74,29.94,29.89,29.85,10,10,10,20,14,26,0.00,2,,170
2011-9-7,86,80,75,79,76,73,97,86,72,30.00,29.94,29.90,10,9,2,23,11,30,0.25,3,Rain-Thunderstorm,168
2011-9-8,86,78,73,75,68,61,97,71,46,29.91,29.87,29.82,10,10,9,15,6,22,0.00,1,,261
2011-9-9,84,76,71,67,65,62,81,66,51,29.92,29.89,29.87,10,10,9,15,7,18,0.00,0,,249
2011-9-10,87,78,71,69,65,63,79,65,48,30.03,29.96,29.92,10,10,10,16,8,,0.00,0,,258
2011-9-11,84,76,69,71,67,63,87,68,49,30.10,30.06,30.03,10,10,10,13,6,,0.00,0,,223
2011-9-12,84,78,71,73,71,68,91,83,62,30.08,30.04,29.99,10,10,7,12,5,,0.02,2,Rain,313
2011-9-13,84,75,66,68,66,63,96,74,51,30.05,30.02,29.98,10,10,7,9,2,,0.01,0,,165
2011-9-14,84,75,66,71,68,65,96,79,61,30.02,29.99,29.95,10,9,3,8,2,,0.00,1,,139
2011-9-15,84,75,66,72,69,66,97,79,56,30.03,29.94,29.89,10,9,2,22,5,32,0.00,1,,266
2011-9-16,72,68,64,66,61,55,90,80,59,30.23,30.17,30.04,10,9,2,21,16,32,0.17,8,Rain-Thunderstorm,27
2011-9-17,72,69,64,66,64,63,94,88,78,30.20,30.17,30.15,10,10,4,20,13,26,0.00,8,,15
2011-9-18,73,68,64,66,63,63,94,85,73,30.24,30.20,30.18,10,10,8,16,12,22,0.00,8,,4
2011-9-19,80,72,64,65,64,63,97,84,60,30.20,30.17,30.12,10,10,9,14,9,20,0.00,4,,26
2011-9-20,81,74,66,72,70,65,96,90,72,30.14,30.11,30.08,10,10,4,7,5,,0.06,4,Rain,24
2011-9-21,82,76,71,74,72,69,97,89,74,30.16,30.12,30.09,10,9,2,12,5,16,0.38,2,Rain,132
2011-9-22,82,77,73,76,73,72,97,87,74,30.17,30.12,30.10,10,9,2,13,6,18,0.40,3,Rain-Thunderstorm,154
2011-9-23,84,78,73,77,73,71,97,89,77,30.13,30.01,29.96,10,7,1,20,8,34,0.54,3,Rain-Thunderstorm,200
2011-9-24,,,,,,,,,,,,,,,,,,,,,,
2011-9-25,,,,,,,,,,,,,,,,,,,,,,
2011-9-26,79,76,73,76,73,70,96,93,87,30.02,29.98,29.95,10,6,1,21,6,24,1.29,5,Rain-Thunderstorm,153
2011-9-27,80,75,72,74,72,70,97,87,78,29.99,29.95,29.91,10,9,4,17,7,25,0.04,3,Rain-Thunderstorm,196
2011-9-28,82,78,73,75,74,73,97,87,74,29.94,29.89,29.83,10,10,8,10,5,,0.00,1,,185
2011-9-29,82,77,73,75,73,70,94,84,70,29.88,29.82,29.76,10,10,8,18,9,26,0.01,2,Thunderstorm,220
2011-9-30,82,74,66,73,70,61,94,79,67,29.83,29.74,29.64,10,9,2,26,10,36,0.00,2,Rain-Thunderstorm,233